Regional Weather Roundup
Issued by NWS

Home | Current Version | Previous Version | Graphics & Text | Print | Product List | Glossary On
Versions: 1 2 3 4 5 6 7 8 9 10 11 12 13 14 15 16 17 18 19 20 21 22 23 24 25 26 27 28 29 30 31 32 33 34 35 36 37 38 39 40 41 42 43 44 45 46 47 48 49 50
000
ASUS43 KOAX 060002
RWRNE

WEATHER ROUNDUP FOR NEBRASKA
NATIONAL WEATHER SERVICE OMAHA NE
700 PM CDT SUN JUL 05 2015

NOTES: SATELLITE DATA IS BEING USED TO AUGMENT CLOUD COVER ABOVE
       12000 FEET.
       "FAIR" INDICATES FEW OR NO CLOUDS BELOW 12,000 FEET WITH NO
       SIGNIFICANT WEATHER AND/OR OBSTRUCTIONS TO VISIBILITY.

  * THESE STATIONS DO NOT REPORT WEATHER SUCH AS RAIN...SNOW OR FOG.

NEZ001>004-019>022-054>056-060100-
NEBRASKA PANHANDLE

CITY           SKY/WX    TMP DP  RH WIND       PRES   REMARKS
SCOTTSBLUFF    TSTM      65  51  59 NW20G29   29.96F
6HR MIN TEMP:  63; 6HR MAX TEMP:  96; 6HR PCP:  1.00;

ALLIANCE       CLOUDY    78  68  71 N16G29    29.86R
6HR MIN TEMP:  78; 6HR MAX TEMP:  93; 6HR PCP: TRACE;

CHADRON        CLOUDY    78  66  66 N20G30    29.89R
6HR MIN TEMP:  76; 6HR MAX TEMP:  91; 6HR PCP: TRACE;

KIMBALL          N/A    N/A N/A N/A MISG        N/A
SIDNEY         CLOUDY    74  60  61 NW25G37   29.89R
6HR MIN TEMP:  74; 6HR MAX TEMP:  97;

$$

NEZ057>060-069>072-079>082-060100-
SOUTHWEST NEBRASKA

CITY           SKY/WX    TMP DP  RH WIND       PRES   REMARKS
NORTH PLATTE   CLOUDY    91  70  49 E8        29.73S HX  96
6HR MIN TEMP:  90; 6HR MAX TEMP:  97;

IMPERIAL       CLOUDY    96  47  18 S15G23    29.73F HX  92
6HR MIN TEMP:  93; 6HR MAX TEMP: 102;

LEXINGTON      PTSUNNY   95  70  43 SE10      29.71S HX 101
MCCOOK         CLOUDY    83  59  44 E21G29    29.73R
6HR MIN TEMP:  83; 6HR MAX TEMP: 106; 6HR PCP: TRACE;

$$

NEZ005>010-023>029-035>040-094-060100-
NORTH CENTRAL NEBRASKA

CITY           SKY/WX    TMP DP  RH WIND       PRES   REMARKS
VALENTINE      CLOUDY    88  69  53 SE9       29.74F HX  92
6HR MIN TEMP:  88; 6HR MAX TEMP:  96;

AINSWORTH      CLOUDY    85  70  60 SE6       29.76F HX  90
BROKEN BOW     MOSUNNY   90  72  55 SE7       29.74S HX  97
6HR MIN TEMP:  87; 6HR MAX TEMP:  95;

ORD            SUNNY     93  70  46 SE10      29.72F HX  99
6HR MIN TEMP:  85; 6HR MAX TEMP:  95;

$$

NEZ041-046>049-061>064-073>077-083>087-060100-
SOUTH CENTRAL NEBRASKA

CITY           SKY/WX    TMP DP  RH WIND       PRES   REMARKS
GRAND ISLAND   SUNNY     93  71  48 SE12      29.73F HX 100
6HR MIN TEMP:  85; 6HR MAX TEMP:  96;

AURORA         SUNNY     91  69  48 SE13G23   29.74F HX  96
HASTINGS       SUNNY     94  66  39 S12G24    29.74S HX  97
6HR MIN TEMP:  86; 6HR MAX TEMP:  97;

KEARNEY *      MOSUNNY   93  70  46 S14       29.72S HX  99
$$

NEZ011>018-030>034-042>045-060100-
NORTHEAST NEBRASKA

CITY           SKY/WX    TMP DP  RH WIND       PRES   REMARKS
NORFOLK        MOSUNNY   89  76  65 SE13      29.77F HX 100
6HR MIN TEMP:  82; 6HR MAX TEMP:  90;

BLAIR          MOSUNNY   88  73  60 S17G23    29.80F HX  95
COLUMBUS *     MOSUNNY   90  73  58 SE13G18   29.77F HX  98
FREMONT        MOSUNNY   90  73  56 SE14G23   29.78F HX  97
TEKAMAH        PTSUNNY   90  75  61 SE17      29.78F HX 100
6HR MIN TEMP:  80; 6HR MAX TEMP:  92;

$$

NEZ050>053-065>068-078-088>093-060100-
SOUTHEAST NEBRASKA

CITY           SKY/WX    TMP DP  RH WIND       PRES   REMARKS
LINCOLN        MOSUNNY   91  74  57 SE20      29.78F HX 100
6HR MIN TEMP:  82; 6HR MAX TEMP:  93;

OMAHA EPPLEY   PTSUNNY   89  74  60 SE21G28   29.80F HX  98
6HR MIN TEMP:  80; 6HR MAX TEMP:  91;

FALLS CITY     SUNNY     90  70  51 S15       29.83F HX  95
6HR MIN TEMP:  86; 6HR MAX TEMP:  92;

$$

NEZ044-045-051>053-067-060100-
OMAHA AREA

CITY           SKY/WX    TMP DP  RH WIND       PRES   REMARKS
OMAHA EPPLEY   PTSUNNY   89  74  60 SE21G28   29.80F HX  98
6HR MIN TEMP:  80; 6HR MAX TEMP:  91;

BLAIR          MOSUNNY   88  73  60 S17G23    29.80F HX  95
FREMONT        MOSUNNY   90  73  56 SE14G23   29.78F HX  97
MILLARD        MOSUNNY   90  75  62 SE14G23   29.79F HX 100
OFFUTT AFB     MOSUNNY   89  74  62 SE16G24   29.79F HX  98
$$


USA.gov is the U.S. government's official web portal to all federal, state and local government web resources and services.